When you browse on this site, cookies collect data to enhance your experience and personalize the content and advertising you see.
Visit our Privacy Policy to learn more. By continuing to use the site, you agree to this use of cookies and data.
  • In Österreich
  • Länderverzeichnis
  • Für 7 Tage
  • Wassertemperatur
  • Satellitenkarten
  • Wetterkarte
  • News
  • Widgets
  • user-avatar
    Anmelden

    Stündliche Wetter Rogatkino

    Heute, 19 Februar, Dienstag

    Zeit Temperatur Niederschläge Wind Luftdruck Luftfeuchtigkeit
    00:00 -6°C° 0 mm 3 m/S 752 mmHg 80%
    01:00 -7°C° 0 mm 4 m/S 751 mmHg 78%
    02:00 -5°C° 0 mm 4 m/S 751 mmHg 77%
    03:00 -5°C° 0 mm 4 m/S 750 mmHg 75%
    04:00 -5°C° 0 mm 4 m/S 750 mmHg 74%
    05:00 -5°C° 0 mm 4 m/S 749 mmHg 72%
    06:00 -6°C° 0 mm 5 m/S 749 mmHg 73%
    07:00 -6°C° 0 mm 5 m/S 748 mmHg 74%
    08:00 -6°C° 0 mm 5 m/S 748 mmHg 75%
    09:00 -4°C° 0 mm 5 m/S 747 mmHg 75%
    10:00 -2°C° 0 mm 5 m/S 747 mmHg 76%
    11:00 -1°C° 0 mm 5 m/S 746 mmHg 76%
    12:00 0°C° 0 mm 5 m/S 746 mmHg 77%
    13:00 0°C° 0 mm 5 m/S 745 mmHg 77%
    14:00 +1°C° 0 mm 5 m/S 744 mmHg 77%
    15:00 0°C° 0 mm 5 m/S 744 mmHg 79%
    16:00 0°C° 0 mm 5 m/S 743 mmHg 82%
    17:00 -1°C° 0 mm 4 m/S 742 mmHg 84%
    18:00 -1°C° 0 mm 5 m/S 742 mmHg 86%
    19:00 -1°C° 0 mm 5 m/S 741 mmHg 87%
    20:00 -1°C° 0 mm 5 m/S 741 mmHg 88%
    21:00 -1°C° 0 mm 5 m/S 740 mmHg 89%
    22:00 0°C° 0 mm 5 m/S 739 mmHg 90%
    23:00 0°C° 0 mm 4 m/S 738 mmHg 90%

    Morgen, 20 Februar, Mittwoch

    Zeit Temperatur Niederschläge Wind Luftdruck Luftfeuchtigkeit
    00:00 0°C° 0.1 mm 4 m/S 738 mmHg 90%
    01:00 0°C° 0.1 mm 4 m/S 737 mmHg 90%
    02:00 0°C° 0.1 mm 4 m/S 737 mmHg 90%
    03:00 0°C° 0.2 mm 4 m/S 737 mmHg 91%
    04:00 0°C° 0.2 mm 4 m/S 737 mmHg 92%
    05:00 0°C° 0.2 mm 4 m/S 736 mmHg 93%
    06:00 0°C° 0.1 mm 4 m/S 736 mmHg 92%
    07:00 0°C° 0.1 mm 4 m/S 736 mmHg 92%
    08:00 0°C° 0.1 mm 4 m/S 736 mmHg 92%
    09:00 0°C° 0.1 mm 4 m/S 736 mmHg 91%
    10:00 +1°C° 0.1 mm 4 m/S 736 mmHg 89%
    11:00 +1°C° 0.1 mm 5 m/S 736 mmHg 88%
    12:00 +1°C° 0.1 mm 5 m/S 736 mmHg 85%
    13:00 +1°C° 0.1 mm 4 m/S 735 mmHg 82%
    14:00 +1°C° 0.1 mm 4 m/S 735 mmHg 80%
    15:00 +1°C° 0.3 mm 4 m/S 735 mmHg 82%
    16:00 +1°C° 0.3 mm 4 m/S 735 mmHg 85%
    17:00 0°C° 0.3 mm 4 m/S 734 mmHg 87%
    18:00 -1°C° 0.3 mm 4 m/S 734 mmHg 84%
    19:00 -1°C° 0.3 mm 4 m/S 734 mmHg 82%
    20:00 -2°C° 0.3 mm 4 m/S 734 mmHg 79%
    21:00 -2°C° 0.1 mm 4 m/S 735 mmHg 82%
    22:00 -3°C° 0.1 mm 4 m/S 735 mmHg 86%
    23:00 -3°C° 0.1 mm 4 m/S 735 mmHg 89%

    übermorgen, 21 Februar, Donnerstag

    Zeit Temperatur Niederschläge Wind Luftdruck Luftfeuchtigkeit
    00:00 -5°C° 0.4 mm 5 m/S 736 mmHg 88%
    01:00 -5°C° 0.4 mm 5 m/S 736 mmHg 87%
    02:00 -5°C° 0.4 mm 6 m/S 737 mmHg 86%
    03:00 -5°C° 0.3 mm 6 m/S 737 mmHg 84%
    04:00 -5°C° 0.3 mm 6 m/S 738 mmHg 83%
    05:00 -5°C° 0.3 mm 6 m/S 738 mmHg 81%
    06:00 -6°C° 0.1 mm 6 m/S 739 mmHg 79%
    07:00 -6°C° 0.1 mm 6 m/S 739 mmHg 77%
    08:00 -8°C° 0.1 mm 6 m/S 740 mmHg 76%
    09:00 -8°C° 0.1 mm 6 m/S 741 mmHg 76%
    10:00 -6°C° 0.1 mm 6 m/S 741 mmHg 75%
    11:00 -6°C° 0.1 mm 6 m/S 742 mmHg 75%
    12:00 -6°C° 0.1 mm 6 m/S 743 mmHg 74%
    13:00 -6°C° 0.1 mm 6 m/S 743 mmHg 73%
    14:00 -6°C° 0.1 mm 6 m/S 744 mmHg 71%
    15:00 -8°C° 0.1 mm 6 m/S 745 mmHg 72%
    16:00 -8°C° 0.1 mm 6 m/S 746 mmHg 73%
    17:00 -9°C° 0.1 mm 6 m/S 747 mmHg 73%
    18:00 -10°C° 0 mm 6 m/S 747 mmHg 73%
    19:00 -10°C° 0 mm 6 m/S 748 mmHg 73%
    20:00 -11°C° 0 mm 5 m/S 749 mmHg 73%
    21:00 -11°C° 0 mm 5 m/S 750 mmHg 72%
    22:00 -12°C° 0 mm 5 m/S 751 mmHg 72%
    23:00 -12°C° 0 mm 5 m/S 751 mmHg 71%

    22 Februar, Freitag

    Zeit Temperatur Niederschläge Wind Luftdruck Luftfeuchtigkeit
    00:00 -12°C° 0 mm 5 m/S 752 mmHg 72%
    01:00 -12°C° 0 mm 5 m/S 753 mmHg 73%
    02:00 -13°C° 0 mm 5 m/S 754 mmHg 73%
    03:00 -13°C° 0 mm 5 m/S 754 mmHg 74%
    04:00 -12°C° 0 mm 4 m/S 755 mmHg 74%
    05:00 -14°C° 0 mm 4 m/S 756 mmHg 75%
    06:00 -14°C° 0 mm 4 m/S 756 mmHg 75%
    07:00 -14°C° 0 mm 4 m/S 757 mmHg 75%
    08:00 -12°C° 0 mm 4 m/S 758 mmHg 74%
    09:00 -11°C° 0 mm 4 m/S 758 mmHg 72%
    10:00 -10°C° 0 mm 4 m/S 758 mmHg 69%
    11:00 -9°C° 0 mm 4 m/S 759 mmHg 66%
    12:00 -10°C° 0 mm 5 m/S 759 mmHg 63%
    13:00 -10°C° 0 mm 5 m/S 759 mmHg 60%
    14:00 -8°C° 0 mm 5 m/S 759 mmHg 58%
    15:00 -8°C° 0 mm 5 m/S 759 mmHg 62%
    16:00 -10°C° 0 mm 5 m/S 759 mmHg 67%
    17:00 -9°C° 0 mm 4 m/S 759 mmHg 71%
    18:00 -10°C° 0 mm 5 m/S 760 mmHg 73%
    19:00 -11°C° 0 mm 5 m/S 760 mmHg 75%
    20:00 -11°C° 0 mm 5 m/S 761 mmHg 77%
    21:00 -11°C° 0 mm 4 m/S 761 mmHg 78%
    22:00 -11°C° 0 mm 4 m/S 762 mmHg 80%
    23:00 -12°C° 0 mm 4 m/S 762 mmHg 81%

    23 Februar, Samstag

    Zeit Temperatur Niederschläge Wind Luftdruck Luftfeuchtigkeit
    00:00 -13°C° 0 mm 3 m/S 762 mmHg 83%
    01:00 -13°C° 0 mm 3 m/S 763 mmHg 85%
    02:00 -13°C° 0 mm 2 m/S 763 mmHg 86%
    03:00 -13°C° 0 mm 2 m/S 763 mmHg 87%
    04:00 -13°C° 0 mm 2 m/S 762 mmHg 87%
    05:00 -13°C° 0 mm 2 m/S 762 mmHg 88%
    06:00 -13°C° 0 mm 2 m/S 762 mmHg 86%
    07:00 -10°C° 0 mm 1 m/S 762 mmHg 85%
    08:00 -10°C° 0 mm 1 m/S 762 mmHg 83%
    09:00 -9°C° 0 mm 1 m/S 762 mmHg 77%
    10:00 -8°C° 0 mm 1 m/S 762 mmHg 70%
    11:00 -7°C° 0 mm 1 m/S 762 mmHg 64%
    12:00 -6°C° 0 mm 1 m/S 761 mmHg 63%
    13:00 -6°C° 0 mm 1 m/S 761 mmHg 62%
    14:00 -6°C° 0 mm 1 m/S 761 mmHg 61%
    15:00 -6°C° 0 mm 1 m/S 761 mmHg 66%
    16:00 -6°C° 0 mm 1 m/S 761 mmHg 71%
    17:00 -6°C° 0 mm 0 m/S 760 mmHg 77%
    18:00 -7°C° 0 mm 1 m/S 761 mmHg 78%
    19:00 -7°C° 0 mm 1 m/S 761 mmHg 80%
    20:00 -8°C° 0 mm 1 m/S 761 mmHg 81%
    21:00 -8°C° 0 mm 1 m/S 762 mmHg 81%
    22:00 -8°C° 0 mm 1 m/S 762 mmHg 81%
    23:00 -8°C° 0 mm 1 m/S 762 mmHg 81%

    24 Februar, Sonntag

    Zeit Temperatur Niederschläge Wind Luftdruck Luftfeuchtigkeit
    00:00 -9°C° 0 mm 1 m/S 763 mmHg 80%
    01:00 -9°C° 0 mm 1 m/S 763 mmHg 79%
    02:00 -9°C° 0 mm 1 m/S 763 mmHg 78%
    03:00 -9°C° 0 mm 1 m/S 763 mmHg 78%
    04:00 -9°C° 0 mm 1 m/S 763 mmHg 78%
    05:00 -9°C° 0 mm 1 m/S 764 mmHg 78%
    06:00 -9°C° 0 mm 1 m/S 764 mmHg 78%
    07:00 -10°C° 0 mm 2 m/S 764 mmHg 77%
    08:00 -10°C° 0 mm 2 m/S 764 mmHg 76%
    09:00 -8°C° 0 mm 2 m/S 764 mmHg 73%
    10:00 -7°C° 0 mm 2 m/S 763 mmHg 70%
    11:00 -6°C° 0 mm 3 m/S 763 mmHg 67%
    12:00 -6°C° 0 mm 3 m/S 763 mmHg 67%
    13:00 -5°C° 0 mm 3 m/S 762 mmHg 66%
    14:00 -4°C° 0 mm 3 m/S 762 mmHg 66%
    15:00 -5°C° 0 mm 3 m/S 761 mmHg 69%
    16:00 -5°C° 0 mm 3 m/S 760 mmHg 72%
    17:00 -6°C° 0 mm 3 m/S 760 mmHg 76%
    18:00 -6°C° 0 mm 3 m/S 759 mmHg 77%
    19:00 -7°C° 0 mm 4 m/S 758 mmHg 78%
    20:00 -7°C° 0 mm 4 m/S 757 mmHg 79%
    21:00 -7°C° 0.1 mm 4 m/S 756 mmHg 82%
    22:00 -5°C° 0.1 mm 4 m/S 755 mmHg 85%
    23:00 -5°C° 0.1 mm 4 m/S 755 mmHg 88%
    Mehr zeigen